Stations météo

réclame
Mon MeteoGroup
Magdeburg, Allemagne (10361): Température de l'air & dewpoint: 17.10.2018 07:00:00 - 23.10.2018 07:00:00 (CEST)Magdeburg, Allemagne (10361): Température de l'air 5cm & Température de l'air -5cm: 17.10.2018 07:00:00 - 23.10.2018 07:00:00 (CEST)Magdeburg, Allemagne (10361): Température de l'air -20cm & Température de l'air -100cm: 17.10.2018 07:00:00 - 23.10.2018 07:00:00 (CEST)Magdeburg, Allemagne (10361): Vitesse du vent & gusts: 17.10.2018 07:00:00 - 23.10.2018 07:00:00 (CEST)Magdeburg, Allemagne (10361): Direction du vent: 17.10.2018 07:00:00 - 23.10.2018 07:00:00 (CEST)Magdeburg, Allemagne (10361): reduced air pressure: 17.10.2018 07:00:00 - 23.10.2018 07:00:00 (CEST)Magdeburg, Allemagne (10361): visibility: 17.10.2018 07:00:00 - 23.10.2018 07:00:00 (CEST)Magdeburg, Allemagne (10361): Ensoleillement: 17.10.2018 07:00:00 - 23.10.2018 07:00:00 (CEST)Magdeburg, Allemagne (10361): Quantités de précipitations: 17.10.2018 07:00:00 - 23.10.2018 07:00:00 (CEST)
Date & Time tt [°C] td [°C] tt 5cm [°C] tt -5cm [°C] tt -20cm [°C] tt -100cm [°C] ff [km/h] ff [knt] fx [km/h] fx [knt] dd ppp [hPa] vv [km] sd [min] rr [mm]
23.10.2018 07:00:00 6,2 2,2 4,8 4,8 9,2 14,1 13 7 24 13 SW 1021,4 43 0 0,0
23.10.2018 06:00:00 5,0 1,6 3,4 4,1 9,3 14,1 11 6 22 12 WSW 1023,6 48 0 0,0
23.10.2018 05:00:00 4,8 1,7 2,5 4,1 9,5 14,1 8 5 16 9 SW 1025,1 53 0 0,0
23.10.2018 04:00:00 4,5 1,7 2,8 4,0 9,7 14,1 10 5 18 10 SW 1026,2 41 0 0,0
23.10.2018 03:00:00 5,4 1,9 3,3 4,2 9,9 14,1 14 8 25 13 SW 1027,4 38 0 0,0
23.10.2018 02:00:00 5,4 2,1 3,0 4,1 10,2 14,2 9 5 18 10 WSW 1028,3 39 0 0,0
23.10.2018 01:00:00 5,6 2,2 2,4 4,2 10,4 14,2 9 5 14 8 WSW 1029,3 47 0 0,0
23.10.2018 00:00:00 4,9 2,2 0,5 4,6 10,6 14,2 7 4 12 7 W 1030,1 44 0 0,0
22.10.2018 23:00:00 6,2 2,2 3,5 5,3 10,9 14,2 8 4 13 7 W 1030,3 51 0 0,0
22.10.2018 22:00:00 6,5 2,7 3,4 5,7 11,1 14,2 8 4 13 7 W 1030,4 49 0 0,0
22.10.2018 21:00:00 6,5 3,6 1,2 6,4 11,3 14,2 8 4 15 8 W 1030,5 34 0 0,0
22.10.2018 20:00:00 7,1 3,8 3,2 7,4 11,5 14,2 5 3 10 5 WNW 1030,5 45 0 0,0
22.10.2018 19:00:00 7,7 5,0 3,8 8,7 11,6 14,2 2 1 8 4 W 1030,0 39 0 0,0
22.10.2018 18:00:00 10,6 4,5 7,9 9,8 11,6 14,2 7 4 23 13 NNW 1029,9 52 0 0,0
22.10.2018 17:00:00 11,7 4,5 9,3 11,2 11,5 14,2 9 5 22 12 NNW 1029,4 57 3 0,0
22.10.2018 16:00:00 12,3 6,2 11,4 12,3 11,3 14,2 9 5 24 13 N 1028,9 65 8 0,0
22.10.2018 15:00:00 11,8 7,7 11,1 13,2 11,2 14,2 10 6 27 14 N 1029,0 62 22 0,0
22.10.2018 14:00:00 10,2 8,2 9,8 11,2 11,1 14,2 8 4 31 17 N 1028,9 55 0 0,1
22.10.2018 13:00:00 9,9 8,4 9,5 10,7 11,0 14,2 17 9 35 19 N 1028,9 16 0 1,0
22.10.2018 12:00:00 10,3 9,5 9,8 10,4 10,9 14,2 6 3 20 11 NW 1028,2 1,9 0 0,9
22.10.2018 11:00:00 10,7 9,0 9,9 10,3 10,8 14,2 8 5 24 13 WNW 1027,4 1,9 0 0,0
22.10.2018 10:00:00 11,1 6,4 11,1 9,8 10,8 14,3 7 4 13 7 WSW 1026,8 19 0 0,0
22.10.2018 09:00:00 9,8 6,0 9,3 8,7 10,8 14,3 6 4 13 7 WSW 1026,5 17 0 0,0
22.10.2018 08:00:00 8,4 5,3 7,6 7,9 10,9 14,3 7 4 11 6 WSW 1026,1 15 0 0,0
22.10.2018 07:00:00 7,0 4,9 5,9 7,1 11,1 14,3 4 2 9 5 SW 1026,1 13 0 0,0
22.10.2018 06:00:00 4,8 3,5 1,6 6,4 11,3 14,3 3 2 8 4 S 1025,8 10 0 0,0
22.10.2018 05:00:00 6,6 4,6 2,1 6,7 11,5 14,3 6 4 10 5 W 1025,8 18 0 0,0
22.10.2018 04:00:00 6,5 4,7 2,0 7,1 11,7 14,3 6 3 12 7 WSW 1026,2 14 0 0,0
22.10.2018 03:00:00 7,6 5,0 4,6 7,5 11,9 14,3 8 4 13 7 SW 1026,5 13 0 0,0
22.10.2018 02:00:00 6,8 4,8 2,0 8,0 12,1 14,3 5 3 11 6 SSW 1026,9 10 0 0,0
22.10.2018 01:00:00 6,9 5,0 4,4 8,1 12,3 14,3 4 2 8 4 SSW 1027,1 14 0 0,0
22.10.2018 00:00:00 7,0 5,3 2,7 8,3 12,5 14,3 5 3 8 4 S 1027,2 15 0 0,0
21.10.2018 23:00:00 6,7 5,5 2,1 8,8 12,8 14,3 5 3 7 4 S 1027,4 8 0 0,0
21.10.2018 22:00:00 7,6 5,9 3,0 9,4 13,0 14,3 4 2 8 4 S 1027,4 11 0 0,0
21.10.2018 21:00:00 8,6 6,3 3,8 10,0 13,2 14,3 4 2 7 4 S 1027,4 16 0 0,0
21.10.2018 20:00:00 9,3 6,7 4,5 10,9 13,3 14,4 5 3 8 4 S 1027,7 21 0 0,0
21.10.2018 19:00:00 10,3 6,7 5,5 12,1 13,4 14,4 0 0 7 4 N 1027,5 34 0 0,0
21.10.2018 18:00:00 12,8 7,1 9,3 14,0 13,3 14,4 2 1 4 2 WSW 1027,2 27 33 0,0
21.10.2018 17:00:00 15,6 6,5 16,2 15,5 13,1 14,4 3 1 8 5 W 1027,5 51 32 0,0
21.10.2018 16:00:00 14,9 6,8 14,6 16,6 12,8 14,4 4 2 10 6 WSW 1028,0 30 9 0,0
21.10.2018 15:00:00 16,2 6,6 18,9 18,4 12,3 14,4 3 2 14 8 SSE 1028,4 30 50 0,0
21.10.2018 14:00:00 14,8 7,2 16,3 18,1 11,9 14,4 10 6 18 10 SW 1028,7 14 38 0,0
21.10.2018 13:00:00 14,6 7,3 17,8 16,5 11,6 14,4 5 3 12 7 SW 1029,2 27 44 0,0
21.10.2018 12:00:00 13,7 7,8 18,9 14,3 11,4 14,4 4 2 12 6 NW 1029,8 33 41 0,0
21.10.2018 11:00:00 12,4 7,6 14,8 11,7 11,3 14,4 3 2 8 4 SSW 1030,0 15 13 0,0
21.10.2018 10:00:00 11,5 7,7 11,3 10,7 11,2 14,4 4 2 8 4 W 1030,0 14 28 0,0
21.10.2018 09:00:00 10,3 7,2 10,1 9,4 11,3 14,4 3 1 8 4 WNW 1029,6 8 20 0,0
21.10.2018 08:00:00 7,9 6,2 6,9 8,3 11,5 14,4 5 3 8 4 W 1029,4 7 0 0,0
21.10.2018 07:00:00 6,5 5,5 4,3 7,7 11,6 14,5 5 3 7 4 W 1029,3 6 0 0,0
21.10.2018 06:00:00 6,6 5,2 3,9 7,7 11,8 14,5 3 2 6 4 NNW 1029,5 7 0 0,0
21.10.2018 05:00:00 7,0 5,4 4,3 8,6 11,9 14,5 3 1 6 3 WNW 1029,2 10 0 0,0
21.10.2018 04:00:00 8,4 6,1 6,7 9,4 12,0 14,5 3 2 5 3 W 1029,3 14 0 0,0
21.10.2018 03:00:00 8,4 5,6 6,6 9,3 12,1 14,5 2 1 10 5 NW 1029,5 15 0 0,0
21.10.2018 02:00:00 9,4 5,7 7,8 9,6 12,2 14,5 5 3 14 7 W 1029,4 20 0 0,0
21.10.2018 01:00:00 10,1 5,6 8,6 10,2 12,3 14,5 6 4 15 8 W 1029,2 23 0 0,0
21.10.2018 00:00:00 11,0 5,6 10,0 10,6 12,4 14,5 7 4 18 10 W 1029,4 24 0 0,0
20.10.2018 23:00:00 11,2 5,4 10,2 10,8 12,4 14,5 8 4 16 8 W 1029,7 28 0 0,0
20.10.2018 22:00:00 11,6 5,2 10,8 11,1 12,5 14,5 8 4 16 9 W 1029,7 31 0 0,0
20.10.2018 21:00:00 11,5 5,1 10,7 11,2 12,6 14,5 5 3 10 5 W 1029,6 30 0 0,0
20.10.2018 20:00:00 11,3 4,9 9,0 11,5 12,6 14,5 5 3 11 6 WSW 1029,3 30 0 0,0
20.10.2018 19:00:00 12,2 4,8 11,1 12,3 12,5 14,5 5 3 16 8 WNW 1029,3 44 0 0,0
20.10.2018 18:00:00 13,0 4,7 12,1 13,2 12,4 14,5 5 3 18 10 NW 1029,3 42 0 0,0
20.10.2018 17:00:00 13,7 3,9 13,2 14,3 12,2 14,6 5 3 19 10 NNW 1029,1 39 6 0,0
20.10.2018 16:00:00 13,7 3,4 13,6 14,9 11,9 14,6 8 4 18 10 WNW 1029,1 24 0 0,0
20.10.2018 15:00:00 13,3 3,6 13,4 15,1 11,5 14,6 7 4 23 12 NNW 1029,5 26 0 0,0
20.10.2018 14:00:00 13,6 3,4 14,3 15,5 11,2 14,6 8 4 22 12 NW 1029,4 30 24 0,0
20.10.2018 13:00:00 13,1 3,4 13,9 14,0 10,8 14,6 8 4 19 10 WNW 1029,6 30 60 0,0
20.10.2018 12:00:00 12,1 3,6 12,6 12,3 10,6 14,6 7 4 15 8 W 1030,0 36 60 0,0
20.10.2018 11:00:00 11,4 3,3 12,6 10,4 10,5 14,6 5 3 9 5 WSW 1029,5 35 60 0,0
20.10.2018 10:00:00 9,0 4,1 9,4 8,2 10,5 14,6 3 1 7 4 W 1029,7 28 10 0,0
20.10.2018 09:00:00 6,6 3,6 6,3 7,2 10,6 14,6 4 2 8 5 WNW 1029,6 28 0 0,0
20.10.2018 08:00:00 5,0 3,1 4,0 6,3 10,8 14,6 4 2 8 5 WNW 1028,7 22 0 0,0
20.10.2018 07:00:00 4,2 2,7 2,8 5,9 11,0 14,6 4 2 7 4 WNW 1028,1 17 0 0,0
20.10.2018 06:00:00 3,5 2,1 1,4 5,8 11,2 14,6 4 2 7 4 W 1027,9 16 0 0,0
20.10.2018 05:00:00 3,1 1,6 0,5 5,8 11,4 14,6 4 2 9 5 NNW 1027,9 15 0 0,0
20.10.2018 04:00:00 4,3 2,2 2,9 5,7 11,7 14,6 7 4 11 6 NNW 1027,7 18 0 0,0
20.10.2018 03:00:00 3,3 2,1 0,0 5,9 11,9 14,6 5 3 7 4 WNW 1027,4 12 0 0,0
20.10.2018 02:00:00 4,2 2,7 1,8 6,5 12,2 14,6 3 2 6 4 W 1027,2 17 0 0,0
20.10.2018 01:00:00 4,2 2,8 1,1 6,8 12,5 14,6 3 2 5 3 W 1027,0 16 0 0,0
20.10.2018 00:00:00 4,8 2,9 1,6 7,3 12,8 14,6 3 2 6 3 WNW 1026,8 19 0 0,0
19.10.2018 23:00:00 4,6 3,0 1,3 7,8 13,1 14,6 4 2 7 4 NNW 1026,8 17 0 0,0
19.10.2018 22:00:00 5,6 3,5 2,1 8,5 13,4 14,6 6 3 9 5 N 1026,8 19 0 0,0
19.10.2018 21:00:00 6,3 4,0 2,4 9,3 13,7 14,6 4 2 6 3 N 1026,6 24 0 0,0
19.10.2018 20:00:00 7,0 4,4 3,2 10,5 13,9 14,7 4 2 7 4 N 1026,1 26 0 0,0
19.10.2018 19:00:00 9,8 5,3 5,0 12,0 14,0 14,7 5 3 7 4 ENE 1025,5 42 0 0,0
19.10.2018 18:00:00 11,7 5,5 8,5 14,4 13,8 14,7 0 0 11 6 N 1025,0 58 37 0,0
19.10.2018 17:00:00 14,1 4,8 16,4 16,9 13,5 14,7 4 2 14 7 ENE 1025,1 63 60 0,0
19.10.2018 16:00:00 14,2 4,7 18,0 18,2 13,0 14,7 7 4 16 8 NNE 1025,2 70 60 0,0
19.10.2018 15:00:00 13,9 3,8 18,4 18,6 12,5 14,7 7 4 17 9 NNE 1025,5 55 60 0,0
19.10.2018 14:00:00 14,0 4,3 18,0 17,9 12,0 14,7 6 4 18 10 NNE 1025,8 44 60 0,0
19.10.2018 13:00:00 13,1 4,2 16,0 16,1 11,6 14,7 7 4 17 9 NE 1026,4 41 60 0,0
19.10.2018 12:00:00 11,6 5,3 15,9 13,3 11,4 14,7 10 5 20 11 NNE 1026,7 55 60 0,0
19.10.2018 11:00:00 9,7 5,6 12,4 9,7 11,4 14,7 8 4 14 7 NNE 1027,0 35 40 0,0
19.10.2018 10:00:00 7,5 5,2 7,1 7,2 11,6 14,7 6 4 12 6 N 1026,8 25 44 0,0
19.10.2018 09:00:00 6,0 5,0 4,1 5,8 11,9 14,7 8 4 14 8 N 1026,3 23 37 0,0
19.10.2018 08:00:00 4,3 3,7 1,4 5,6 12,2 14,7 6 3 11 6 NNW 1025,9 13 0 0,0
19.10.2018 07:00:00 3,8 3,3 -0,2 6,1 12,5 14,7 5 3 10 5 WNW 1025,8 14 0 0,0
19.10.2018 06:00:00 4,7 4,0 0,8 6,7 12,8 14,7 4 2 8 5 NW 1025,7 19 0 0,0
19.10.2018 05:00:00 4,7 3,9 0,6 7,4 13,1 14,7 3 1 9 5 NW 1025,7 24 0 0,0
19.10.2018 04:00:00 6,2 5,2 2,7 8,2 13,4 14,7 6 3 11 6 NNW 1025,2 31 0 0,0
19.10.2018 03:00:00 7,8 6,0 4,5 9,1 13,6 14,7 7 4 14 8 N 1025,2 34 0 0,0
19.10.2018 02:00:00 9,0 6,5 6,5 9,8 13,8 14,7 9 5 15 8 N 1025,2 46 0 0,0
19.10.2018 01:00:00 9,6 7,2 6,8 10,6 14,0 14,7 7 4 13 7 N 1025,2 38 0 0,0
19.10.2018 00:00:00 10,8 8,5 7,9 11,6 14,1 14,7 6 4 16 8 N 1025,2 31 0 0,0
18.10.2018 23:00:00 12,3 9,3 11,0 13,0 14,2 14,7 11 6 19 10 N 1024,9 24 0 0,0
18.10.2018 22:00:00 13,4 10,4 12,6 13,3 14,3 14,7 9 5 19 11 N 1024,6 11 0 0,0
18.10.2018 21:00:00 13,6 11,0 12,5 13,7 14,3 14,7 3 2 7 4 NNW 1024,0 9 0 0,0
18.10.2018 20:00:00 14,1 11,0 13,0 14,0 14,3 14,7 3 2 10 5 NNE 1023,5 10 0 0,0
18.10.2018 19:00:00 14,8 10,9 13,9 14,3 14,3 14,7 6 4 15 8 NNE 1023,0 13 0 0,0
18.10.2018 18:00:00 15,2 10,4 14,5 14,8 14,2 14,7 7 4 16 9 N 1022,4 17 0 0,0
18.10.2018 17:00:00 15,3 11,2 15,0 15,3 14,0 14,7 5 3 14 8 NNW 1022,2 12 0 0,0
18.10.2018 16:00:00 15,4 11,3 15,9 15,7 13,8 14,7 6 3 16 9 N 1022,1 10 0 0,0
18.10.2018 15:00:00 15,6 11,3 16,5 15,7 13,6 14,7 9 5 19 10 N 1022,1 10 0 0,0
18.10.2018 14:00:00 14,7 11,1 15,7 15,1 13,5 14,7 9 5 21 12 N 1022,0 9 0 0,0
18.10.2018 13:00:00 13,8 11,2 14,3 14,2 13,3 14,7 10 5 21 11 NNW 1022,4 5 0 0,0
18.10.2018 12:00:00 13,1 11,0 13,6 13,4 13,2 14,7 8 4 20 11 NNW 1022,3 5 0 0,0
18.10.2018 11:00:00 11,7 10,5 12,0 12,7 13,2 14,7 7 4 18 10 NW 1022,0 4,8 0 0,0
18.10.2018 10:00:00 11,2 10,1 11,3 11,9 13,2 14,7 7 4 19 10 NNW 1021,8 4,1 0 0,0
18.10.2018 09:00:00 11,5 10,9 11,1 11,0 13,3 14,7 5 3 15 8 NW 1021,5 0,6 0 0,0
18.10.2018 08:00:00 10,7 10,1 10,1 9,8 13,5 14,7 5 3 12 7 NW 1020,9 1,2 0 0,0
18.10.2018 07:00:00 8,3 7,5 5,0 9,2 13,7 14,7 5 3 9 5 W 1020,3 1,8 0 0,0
18.10.2018 06:00:00 9,2 8,2 5,9 9,4 14,0 14,7 4 2 9 5 WNW 1020,1 1,6 0 0,0
18.10.2018 05:00:00 9,8 8,6 5,7 9,7 14,2 14,7 5 3 9 5 WNW 1019,7 2,3 0 0,0
18.10.2018 04:00:00 8,6 7,4 5,5 10,0 14,5 14,7 4 2 6 4 W 1019,7 1,7 0 0,0
18.10.2018 03:00:00 8,9 7,7 5,5 10,4 14,8 14,7 3 2 7 4 WNW 1019,7 2,3 0 0,0
18.10.2018 02:00:00 10,2 8,4 6,0 10,9 15,0 14,7 3 2 7 4 NW 1019,8 3,0 0 0,0
18.10.2018 01:00:00 9,4 7,9 5,9 11,3 15,3 14,7 4 2 7 4 WNW 1019,9 4,1 0 0,0
18.10.2018 00:00:00 10,0 8,3 6,7 11,9 15,6 14,6 3 2 5 3 WNW 1019,7 5 0 0,0
17.10.2018 23:00:00 11,1 9,2 7,2 12,5 15,9 14,6 4 2 5 3 NW 1019,7 6 0 0,0
17.10.2018 22:00:00 11,6 9,6 7,8 13,3 16,2 14,6 3 1 4 2 WSW 1019,8 7 0 0,0
17.10.2018 21:00:00 12,2 9,7 8,3 14,2 16,5 14,6 2 1 6 3 NW 1019,5 7 0 0,0
17.10.2018 20:00:00 14,2 10,6 9,9 15,3 16,6 14,6 4 2 5 3 ENE 1019,1 10 0 0,0
17.10.2018 19:00:00 15,6 11,0 11,3 16,9 16,7 14,6 0 0 4 2 N 1018,6 15 0 0,0
17.10.2018 18:00:00 18,6 11,2 16,2 19,3 16,5 14,6 3 1 8 5 N 1018,3 16 38 0,0
17.10.2018 17:00:00 21,9 10,5 22,6 21,4 16,1 14,6 0 0 9 5 N 1018,1 15 60 0,0
17.10.2018 16:00:00 21,7 9,9 24,0 22,6 15,6 14,6 4 2 10 5 N 1018,2 14 60 0,0
17.10.2018 15:00:00 21,9 9,4 24,2 22,7 15,1 14,6 3 2 10 5 NE 1018,3 14 60 0,0
17.10.2018 14:00:00 21,4 9,0 24,5 22,7 14,5 14,6 2 1 9 5 NNW 1018,6 15 60 0,0
17.10.2018 13:00:00 19,8 11,1 24,7 21,0 14,1 14,6 4 2 8 5 NNE 1019,0 8 60 0,0
17.10.2018 12:00:00 18,0 11,8 22,3 18,4 13,8 14,6 4 2 8 4 ENE 1019,5 6 60 0,0
17.10.2018 11:00:00 16,8 11,9 18,6 15,5 13,7 14,6 2 1 7 4 NNW 1019,6 6 60 0,0
17.10.2018 10:00:00 13,9 11,1 14,8 12,5 13,8 14,6 2 1 5 3 NW 1019,6 6 34 0,0
17.10.2018 09:00:00 10,6 9,6 9,0 10,6 14,0 14,6 2 1 6 4 NNE 1019,9 4,5 0 0,0
17.10.2018 08:00:00 9,8 8,9 6,0 10,3 14,2 14,6 1 1 3 2 NW 1019,7 3,1 0 0,0
17.10.2018 07:00:00 10,7 9,5 6,7 10,8 14,4 14,6 1 0 9 5 N 1019,3 3,8 0 0,0

tt = Température de l'air
td = dewpoint
tt 5cm = Température de l'air 5cm
tt -5cm = Température de l'air -5cm
tt -20cm = Température de l'air -20cm
tt -100cm = Température de l'air -100cm
ff = Vitesse du vent
fx = gusts
dd = Direction du vent
ppp = reduced air pressure
vv = visibility
sd = Ensoleillement
rr = Quantités de précipitations

stations d'obs. à proximité